Regional Weather Roundup
Issued by NWS Little Rock, AR

Home | Current Version | Previous Version | Graphics & Text | Print | Product List | Glossary On
Versions: 1 2 3 4 5 6 7 8 9 10 11 12 13 14 15 16 17 18 19 20 21 22 23 24 25 26 27
000
ASUS44 KLZK 230205
RWRLZK

WEATHER ROUNDUP FOR ARKANSAS
NATIONAL WEATHER SERVICE LITTLE ROCK AR
900 PM CDT TUE APR 22 2014

NOTE: "FAIR" INDICATES FEW OR NO CLOUDS BELOW 12,000 FEET WITH NO
SIGNIFICANT WEATHER AND/OR OBSTRUCTIONS TO VISIBILITY.

ARZ001-003-010-029-230300-
NORTHWEST ARKANSAS

CITY           SKY/WX    TMP DP  RH WIND       PRES   REMARKS
FAYETTEVILLE   CLEAR     54  43  66 CALM      29.99R
FORT SMITH     CLEAR     68  36  30 N7        29.94R
HARRISON       CLEAR     62  34  35 CALM      29.98S
BENTONVILLE    CLEAR     61  36  39 NE6       30.00R
ROGERS         CLEAR     60  37  42 NE5       30.00R
SILOAM SPGS    CLEAR     61  37  41 NE5       30.00R
HIGHFILL       CLEAR     57  40  52 N5        29.98R
SPRINGDALE     CLEAR     61  37  41 N9        30.00S
$$

ARZ004-005-016-230300-
NORTH CENTRAL ARKANSAS

CITY           SKY/WX    TMP DP  RH WIND       PRES   REMARKS
BATESVILLE     CLEAR     66  36  32 N3        29.95R
FLIPPIN        CLEAR     66  34  30 CALM      29.97S
MTN HOME       CLEAR     64  31  28 CALM      29.96S
$$

ARZ040-041-230300-
WEST CENTRAL ARKANSAS

CITY           SKY/WX    TMP DP  RH WIND       PRES   REMARKS
MENA           CLEAR     59  52  77 CALM      29.97R
MOUNT IDA      CLEAR     62  51  67 CALM      29.93R
$$

ARZ009-017-025-026-028-230300-
NORTHEAST ARKANSAS

CITY           SKY/WX    TMP DP  RH WIND       PRES   REMARKS
CORNING        FAIR      64  43  45 E12       29.96R
JONESBORO      CLEAR     59  47  64 CALM      29.94R
NEWPORT        CLEAR     69  48  46 SW10      29.96R
WALNUT RIDGE   CLEAR     66  43  42 CALM      29.95R
BLYTHEVILLE    CLEAR     59  43  55 NE7       29.95R
$$

ARZ022-023-033-042-044-230300-
CENTRAL ARKANSAS

CITY           SKY/WX    TMP DP  RH WIND       PRES   REMARKS
LITTLE ROCK    CLEAR     67  44  43 NE3       29.94R
N LITTLE ROCK  CLEAR     69  39  34 NE7       29.94R
JACKSONVILLE   CLEAR     60  48  66 CALM      29.95R
SEARCY         CLEAR     62  46  55 NW3       29.96R
HOT SPRINGS    CLEAR     66  49  54 CALM      29.94R
RUSSELLVILLE   CLEAR     64  39  39 CALM      29.94R
CLINTON        FAIR      57  45  62 CALM      29.97R
$$

ARZ036-230300-
EAST ARKANSAS

CITY           SKY/WX    TMP DP  RH WIND       PRES   REMARKS
WEST MEMPHIS   CLEAR     61  50  67 CALM      29.93R HAZE
$$

ARZ050-053-066-070-073-230300-
SOUTHWEST ARKANSAS

CITY           SKY/WX    TMP DP  RH WIND       PRES   REMARKS
ARKADELPHIA    FAIR      65  63  93 CALM      29.94R
CAMDEN         CLEAR     64  57  77 MISG      29.93R
TEXARKANA      CLEAR     65  55  70 CALM      29.93R
EL DORADO      CLEAR     64  60  87 CALM      29.93R
DE QUEEN       CLEAR     64  55  72 CALM      29.92R
$$

ARZ056-057-069-230300-
SOUTHEAST ARKANSAS

CITY           SKY/WX    TMP DP  RH WIND       PRES   REMARKS
PINE BLUFF     CLEAR     66  51  58 CALM      29.94R
STUTTGART      CLEAR     70  48  46 E5        29.95R
MONTICELLO     CLEAR     61  56  83 CALM      29.94R

$$





USA.gov is the U.S. government's official web portal to all federal, state and local government web resources and services.